Year,Month,Day,Hour,Minute,Value (Times are PST for temperature in C)
2017,06,23,00,00,12.10
2017,06,23,00,01,12.10
2017,06,23,00,02,12.10
2017,06,23,00,03,12.10
2017,06,23,00,04,12.10
2017,06,23,00,05,12.10
2017,06,23,00,06,12.10
2017,06,23,00,07,12.10
2017,06,23,00,08,12.10
2017,06,23,00,09,12.10
2017,06,23,00,10,12.00
2017,06,23,00,11,12.00
2017,06,23,00,12,11.90
2017,06,23,00,13,11.90
2017,06,23,00,14,11.90
2017,06,23,00,15,11.80
2017,06,23,00,16,11.80
2017,06,23,00,17,11.80
2017,06,23,00,18,11.80
2017,06,23,00,19,11.80
2017,06,23,00,20,11.70
2017,06,23,00,21,11.70
2017,06,23,00,22,11.70
2017,06,23,00,23,11.70
2017,06,23,00,24,11.80
2017,06,23,00,25,11.90
2017,06,23,00,26,12.00
2017,06,23,00,27,12.00
2017,06,23,00,28,12.10
2017,06,23,00,29,12.20
2017,06,23,00,30,12.20
2017,06,23,00,31,12.10
2017,06,23,00,32,12.00
2017,06,23,00,33,11.90
2017,06,23,00,34,11.80
2017,06,23,00,35,11.70
2017,06,23,00,36,11.60
2017,06,23,00,37,11.50
2017,06,23,00,38,11.30
2017,06,23,00,39,11.20
2017,06,23,00,40,11.10
2017,06,23,00,41,10.90
2017,06,23,00,42,10.80
2017,06,23,00,43,10.60
2017,06,23,00,44,10.50
2017,06,23,00,45,10.40
2017,06,23,00,46,10.30
2017,06,23,00,47,10.30
2017,06,23,00,48,10.20
2017,06,23,00,49,10.20
2017,06,23,00,50,10.20
2017,06,23,00,51,10.20
2017,06,23,00,52,10.20
2017,06,23,00,53,10.20
2017,06,23,00,54,10.20
2017,06,23,00,55,10.20
2017,06,23,00,56,10.20
2017,06,23,00,57,10.20
2017,06,23,00,58,10.20
2017,06,23,00,59,10.20
2017,06,23,01,00,10.20
2017,06,23,01,01,10.30
2017,06,23,01,02,10.40
2017,06,23,01,03,10.60
2017,06,23,01,04,10.70
2017,06,23,01,05,10.90
2017,06,23,01,06,11.00
2017,06,23,01,07,11.20
2017,06,23,01,08,11.30
2017,06,23,01,09,11.40
2017,06,23,01,10,11.50
2017,06,23,01,11,11.50
2017,06,23,01,12,11.60
2017,06,23,01,13,11.70
2017,06,23,01,14,11.70
2017,06,23,01,15,11.80
2017,06,23,01,16,11.80
2017,06,23,01,17,11.80
2017,06,23,01,18,11.80
2017,06,23,01,19,11.80
2017,06,23,01,20,11.90
2017,06,23,01,21,11.90
2017,06,23,01,22,11.90
2017,06,23,01,23,11.80
2017,06,23,01,24,11.70
2017,06,23,01,25,11.60
2017,06,23,01,26,11.50
2017,06,23,01,27,11.40
2017,06,23,01,28,11.30
2017,06,23,01,29,11.30
2017,06,23,01,30,11.40
2017,06,23,01,31,11.40
2017,06,23,01,32,11.50
2017,06,23,01,33,11.60
2017,06,23,01,34,11.70
2017,06,23,01,35,11.70
2017,06,23,01,36,11.90
2017,06,23,01,37,12.10
2017,06,23,01,38,12.30
2017,06,23,01,39,12.50
2017,06,23,01,40,12.60
2017,06,23,01,41,12.70
2017,06,23,01,42,12.70
2017,06,23,01,43,12.80
2017,06,23,01,44,12.80
2017,06,23,01,45,12.90
2017,06,23,01,46,13.00
2017,06,23,01,47,13.10
2017,06,23,01,48,13.20
2017,06,23,01,49,13.30
2017,06,23,01,50,13.30
2017,06,23,01,51,13.30
2017,06,23,01,52,13.30
2017,06,23,01,53,13.20
2017,06,23,01,54,13.20
2017,06,23,01,55,13.10
2017,06,23,01,56,13.10
2017,06,23,01,57,13.10
2017,06,23,01,58,13.10
2017,06,23,01,59,13.20
2017,06,23,02,00,13.20
2017,06,23,02,01,13.20
2017,06,23,02,02,13.30
2017,06,23,02,03,13.40
2017,06,23,02,04,13.40
2017,06,23,02,05,13.50
2017,06,23,02,06,13.50
2017,06,23,02,07,13.50
2017,06,23,02,08,13.50
2017,06,23,02,09,13.50
2017,06,23,02,10,13.50
2017,06,23,02,11,13.50
2017,06,23,02,12,13.50
2017,06,23,02,13,13.50
2017,06,23,02,14,13.50
2017,06,23,02,15,13.50
2017,06,23,02,16,13.50
2017,06,23,02,17,13.50
2017,06,23,02,18,13.50
2017,06,23,02,19,13.50
2017,06,23,02,20,13.40
2017,06,23,02,21,13.40
2017,06,23,02,22,13.30
2017,06,23,02,23,13.20
2017,06,23,02,24,13.20
2017,06,23,02,25,13.10
2017,06,23,02,26,13.10
2017,06,23,02,27,13.10
2017,06,23,02,28,13.10
2017,06,23,02,29,13.20
2017,06,23,02,30,13.20
2017,06,23,02,31,13.20
2017,06,23,02,32,13.30
2017,06,23,02,33,13.30
2017,06,23,02,34,13.30
2017,06,23,02,35,13.40
2017,06,23,02,36,13.40
2017,06,23,02,37,13.40
2017,06,23,02,38,13.30
2017,06,23,02,39,13.20
2017,06,23,02,40,13.10
2017,06,23,02,41,13.10
2017,06,23,02,42,13.10
2017,06,23,02,43,13.00
2017,06,23,02,44,13.00
2017,06,23,02,45,13.00
2017,06,23,02,46,13.00
2017,06,23,02,47,12.80
2017,06,23,02,48,12.70
2017,06,23,02,49,12.70
2017,06,23,02,50,12.70
2017,06,23,02,51,12.60
2017,06,23,02,52,12.60
2017,06,23,02,53,12.60
2017,06,23,02,54,12.60
2017,06,23,02,55,12.70
2017,06,23,02,56,12.70
2017,06,23,02,57,12.80
2017,06,23,02,58,12.80
2017,06,23,02,59,12.80
2017,06,23,03,00,12.80
2017,06,23,03,01,12.80
2017,06,23,03,02,12.80
2017,06,23,03,03,12.80
2017,06,23,03,04,12.80
2017,06,23,03,05,12.80
2017,06,23,03,06,12.80
2017,06,23,03,07,12.80
2017,06,23,03,08,12.80
2017,06,23,03,09,12.70
2017,06,23,03,10,12.70
2017,06,23,03,11,12.60
2017,06,23,03,12,12.60
2017,06,23,03,13,12.50
2017,06,23,03,14,12.40
2017,06,23,03,15,12.40
2017,06,23,03,16,12.30
2017,06,23,03,17,12.20
2017,06,23,03,18,12.20
2017,06,23,03,19,12.10
2017,06,23,03,20,12.00
2017,06,23,03,21,12.00
2017,06,23,03,22,11.90
2017,06,23,03,23,11.80
2017,06,23,03,24,11.80
2017,06,23,03,25,11.70
2017,06,23,03,26,11.60
2017,06,23,03,27,11.50
2017,06,23,03,28,11.40
2017,06,23,03,29,11.40
2017,06,23,03,30,11.40
2017,06,23,03,31,11.40
2017,06,23,03,32,11.40
2017,06,23,03,33,11.30
2017,06,23,03,34,11.30
2017,06,23,03,35,11.30
2017,06,23,03,36,11.30
2017,06,23,03,37,11.30
2017,06,23,03,38,11.30
2017,06,23,03,39,11.30
2017,06,23,03,40,11.30
2017,06,23,03,41,11.30
2017,06,23,03,42,11.30
2017,06,23,03,43,11.20
2017,06,23,03,44,11.20
2017,06,23,03,45,11.20
2017,06,23,03,46,11.20
2017,06,23,03,47,11.20
2017,06,23,03,48,11.10
2017,06,23,03,49,11.10
2017,06,23,03,50,11.10
2017,06,23,03,51,11.00
2017,06,23,03,52,11.00
2017,06,23,03,53,11.00
2017,06,23,03,54,11.00
2017,06,23,03,55,11.00
2017,06,23,03,56,10.90
2017,06,23,03,57,10.90
2017,06,23,03,58,10.80
2017,06,23,03,59,10.70
2017,06,23,04,00,10.70
2017,06,23,04,01,10.60
2017,06,23,04,02,10.60
2017,06,23,04,03,10.50
2017,06,23,04,04,10.50
2017,06,23,04,05,10.40
2017,06,23,04,06,10.40
2017,06,23,04,07,10.30
2017,06,23,04,08,10.30
2017,06,23,04,09,10.30
2017,06,23,04,10,10.20
2017,06,23,04,11,10.20
2017,06,23,04,12,10.20
2017,06,23,04,13,10.20
2017,06,23,04,14,10.20
2017,06,23,04,15,10.20
2017,06,23,04,16,10.10
2017,06,23,04,17,10.00
2017,06,23,04,18,9.90
2017,06,23,04,19,9.80
2017,06,23,04,20,9.80
2017,06,23,04,21,9.70
2017,06,23,04,22,9.70
2017,06,23,04,23,9.70
2017,06,23,04,24,9.70
2017,06,23,04,25,9.70
2017,06,23,04,26,9.60
2017,06,23,04,27,9.60
2017,06,23,04,28,9.60
2017,06,23,04,29,9.60
2017,06,23,04,30,9.60
2017,06,23,04,31,9.60
2017,06,23,04,32,9.60
2017,06,23,04,33,9.60
2017,06,23,04,34,9.60
2017,06,23,04,35,9.60
2017,06,23,04,36,9.60
2017,06,23,04,37,9.60
2017,06,23,04,38,9.70
2017,06,23,04,39,9.70
2017,06,23,04,40,9.70
2017,06,23,04,41,9.70
2017,06,23,04,42,9.70
2017,06,23,04,43,9.70
2017,06,23,04,44,9.70
2017,06,23,04,45,9.70
2017,06,23,04,46,9.70
2017,06,23,04,47,9.70
2017,06,23,04,48,9.70
2017,06,23,04,49,9.70
2017,06,23,04,50,9.70
2017,06,23,04,51,9.70
2017,06,23,04,52,9.70
2017,06,23,04,53,9.70
2017,06,23,04,54,9.60
2017,06,23,04,55,9.60
2017,06,23,04,56,9.60
2017,06,23,04,57,9.60
2017,06,23,04,58,9.50
2017,06,23,04,59,9.50
2017,06,23,05,00,9.50
2017,06,23,05,01,9.50
2017,06,23,05,02,9.50
2017,06,23,05,03,9.50
2017,06,23,05,04,9.50
2017,06,23,05,05,9.50
2017,06,23,05,06,9.50
2017,06,23,05,07,9.50
2017,06,23,05,08,9.50
2017,06,23,05,09,9.50
2017,06,23,05,10,9.50
2017,06,23,05,11,9.50
2017,06,23,05,12,9.40
2017,06,23,05,13,9.40
2017,06,23,05,14,9.40
2017,06,23,05,15,9.40
2017,06,23,05,16,9.40
2017,06,23,05,17,9.40
2017,06,23,05,18,9.40
2017,06,23,05,19,9.30
2017,06,23,05,20,9.30
2017,06,23,05,21,9.30
2017,06,23,05,22,9.20
2017,06,23,05,23,9.20
2017,06,23,05,24,9.20
2017,06,23,05,25,9.10
2017,06,23,05,26,9.10
2017,06,23,05,27,9.10
2017,06,23,05,28,9.00
2017,06,23,05,29,8.90
2017,06,23,05,30,8.80
2017,06,23,05,31,8.70
2017,06,23,05,32,8.60
2017,06,23,05,33,8.60
2017,06,23,05,34,8.50
2017,06,23,05,35,8.40
2017,06,23,05,36,8.40
2017,06,23,05,37,8.30
2017,06,23,05,38,8.30
2017,06,23,05,39,8.30
2017,06,23,05,40,8.30
2017,06,23,05,41,8.30
2017,06,23,05,42,8.30
2017,06,23,05,43,8.30
2017,06,23,05,44,8.30
2017,06,23,05,45,8.30
2017,06,23,05,46,8.30
2017,06,23,05,47,8.30
2017,06,23,05,48,8.30
2017,06,23,05,49,8.30
2017,06,23,05,50,8.30
2017,06,23,05,51,8.30
2017,06,23,05,52,8.30
2017,06,23,05,53,8.30
2017,06,23,05,54,8.30
2017,06,23,05,55,8.30
2017,06,23,05,56,8.30
2017,06,23,05,57,8.30
2017,06,23,05,58,8.30
2017,06,23,05,59,8.30
2017,06,23,06,00,8.40
2017,06,23,06,01,8.40
2017,06,23,06,02,8.50
2017,06,23,06,03,8.50
2017,06,23,06,04,8.60
2017,06,23,06,05,8.50
2017,06,23,06,06,8.40
2017,06,23,06,07,8.30
2017,06,23,06,08,8.30
2017,06,23,06,09,8.20
2017,06,23,06,10,8.10
2017,06,23,06,11,8.10
2017,06,23,06,12,8.10
2017,06,23,06,13,8.00
2017,06,23,06,14,8.00
2017,06,23,06,15,8.00
2017,06,23,06,16,8.00
2017,06,23,06,17,8.10
2017,06,23,06,18,8.10
2017,06,23,06,19,8.10
2017,06,23,06,20,8.10
2017,06,23,06,21,8.20
2017,06,23,06,22,8.20
2017,06,23,06,23,8.20
2017,06,23,06,24,8.30
2017,06,23,06,25,8.30
2017,06,23,06,26,8.30
2017,06,23,06,27,8.40
2017,06,23,06,28,8.40
2017,06,23,06,29,8.50
2017,06,23,06,30,8.60
2017,06,23,06,31,8.60
2017,06,23,06,32,8.70
2017,06,23,06,33,8.80
2017,06,23,06,34,8.90
2017,06,23,06,35,9.00
2017,06,23,06,36,9.10
2017,06,23,06,37,9.30
2017,06,23,06,38,9.40
2017,06,23,06,39,9.50
2017,06,23,06,40,9.60
2017,06,23,06,41,9.70
2017,06,23,06,42,9.70
2017,06,23,06,43,9.80
2017,06,23,06,44,9.90
2017,06,23,06,45,9.90
2017,06,23,06,46,10.00
2017,06,23,06,47,10.00
2017,06,23,06,48,10.10
2017,06,23,06,49,10.10
2017,06,23,06,50,10.20
2017,06,23,06,51,10.20
2017,06,23,06,52,10.30
2017,06,23,06,53,10.40
2017,06,23,06,54,10.50
2017,06,23,06,55,10.60
2017,06,23,06,56,10.70
2017,06,23,06,57,10.70
2017,06,23,06,58,10.80
2017,06,23,06,59,10.80
2017,06,23,07,00,10.90
2017,06,23,07,01,10.90
2017,06,23,07,02,11.00
2017,06,23,07,03,11.00
2017,06,23,07,04,11.10
2017,06,23,07,05,11.20
2017,06,23,07,06,11.30
2017,06,23,07,07,11.30
2017,06,23,07,08,11.40
2017,06,23,07,09,11.50
2017,06,23,07,10,11.50
2017,06,23,07,11,11.60
2017,06,23,07,12,11.60
2017,06,23,07,13,11.70
2017,06,23,07,14,11.80
2017,06,23,07,15,11.80
2017,06,23,07,16,11.90
2017,06,23,07,17,12.00
2017,06,23,07,18,12.20
2017,06,23,07,19,12.30
2017,06,23,07,20,12.40
2017,06,23,07,21,12.50
2017,06,23,07,22,12.60
2017,06,23,07,23,12.70
2017,06,23,07,24,12.70
2017,06,23,07,25,12.80
2017,06,23,07,26,12.90
2017,06,23,07,27,12.90
2017,06,23,07,28,13.00
2017,06,23,07,29,13.00
2017,06,23,07,30,13.10
2017,06,23,07,31,13.20
2017,06,23,07,32,13.20
2017,06,23,07,33,13.30
2017,06,23,07,34,13.30
2017,06,23,07,35,13.30
2017,06,23,07,36,13.30
2017,06,23,07,37,13.30
2017,06,23,07,38,13.30
2017,06,23,07,39,13.30
2017,06,23,07,40,13.30
2017,06,23,07,41,13.30
2017,06,23,07,42,13.30
2017,06,23,07,43,13.40
2017,06,23,07,44,13.40
2017,06,23,07,45,13.50
2017,06,23,07,46,13.60
2017,06,23,07,47,13.60
2017,06,23,07,48,13.70
2017,06,23,07,49,13.70
2017,06,23,07,50,13.70
2017,06,23,07,51,13.70
2017,06,23,07,52,13.80
2017,06,23,07,53,13.80
2017,06,23,07,54,13.80
2017,06,23,07,55,13.80
2017,06,23,07,56,13.90
2017,06,23,07,57,14.00
2017,06,23,07,58,14.00
2017,06,23,07,59,14.10
2017,06,23,08,00,14.10
2017,06,23,08,01,14.10
2017,06,23,08,02,14.10
2017,06,23,08,03,14.20
2017,06,23,08,04,14.20
2017,06,23,08,05,14.20
2017,06,23,08,06,14.30
2017,06,23,08,07,14.30
2017,06,23,08,08,14.30
2017,06,23,08,09,14.40
2017,06,23,08,10,14.40
2017,06,23,08,11,14.50
2017,06,23,08,12,14.50
2017,06,23,08,13,14.60
2017,06,23,08,14,14.60
2017,06,23,08,15,14.60
2017,06,23,08,16,14.70
2017,06,23,08,17,14.70
2017,06,23,08,18,14.80
2017,06,23,08,19,14.80
2017,06,23,08,20,14.80
2017,06,23,08,21,14.90
2017,06,23,08,22,14.90
2017,06,23,08,23,14.90
2017,06,23,08,24,15.00
2017,06,23,08,25,15.00
2017,06,23,08,26,15.00
2017,06,23,08,27,15.10
2017,06,23,08,28,15.20
2017,06,23,08,29,15.20
2017,06,23,08,30,15.30
2017,06,23,08,31,15.30
2017,06,23,08,32,15.30
2017,06,23,08,33,15.40
2017,06,23,08,34,15.40
2017,06,23,08,35,15.50
2017,06,23,08,36,15.50
2017,06,23,08,37,15.60
2017,06,23,08,38,15.60
2017,06,23,08,39,15.70
2017,06,23,08,40,15.70
2017,06,23,08,41,15.80
2017,06,23,08,42,15.80
2017,06,23,08,43,15.80
2017,06,23,08,44,15.90
2017,06,23,08,45,15.90
2017,06,23,08,46,16.00
2017,06,23,08,47,16.10
2017,06,23,08,48,16.10
2017,06,23,08,49,16.20
2017,06,23,08,50,16.30
2017,06,23,08,51,16.30
2017,06,23,08,52,16.30
2017,06,23,08,53,16.30
2017,06,23,08,54,16.30
2017,06,23,08,55,16.30
2017,06,23,08,56,16.30
2017,06,23,08,57,16.30
2017,06,23,08,58,16.40
2017,06,23,08,59,16.40
2017,06,23,09,00,16.40
2017,06,23,09,01,16.40
2017,06,23,09,02,16.40
2017,06,23,09,03,16.50
2017,06,23,09,04,16.50
2017,06,23,09,05,16.60
2017,06,23,09,06,16.60
2017,06,23,09,07,16.60
2017,06,23,09,08,16.60
2017,06,23,09,09,16.70
2017,06,23,09,10,16.70
2017,06,23,09,11,16.70
2017,06,23,09,12,16.70
2017,06,23,09,13,16.70
2017,06,23,09,14,16.70
2017,06,23,09,15,16.80
2017,06,23,09,16,16.80
2017,06,23,09,17,16.80
2017,06,23,09,18,16.90
2017,06,23,09,19,16.90
2017,06,23,09,20,16.90
2017,06,23,09,21,16.90
2017,06,23,09,22,16.90
2017,06,23,09,23,16.90
2017,06,23,09,24,16.90
2017,06,23,09,25,16.90
2017,06,23,09,26,16.90
2017,06,23,09,27,17.00
2017,06,23,09,28,17.00
2017,06,23,09,29,17.00
2017,06,23,09,30,17.10
2017,06,23,09,31,17.10
2017,06,23,09,32,17.20
2017,06,23,09,33,17.20
2017,06,23,09,34,17.30
2017,06,23,09,35,17.30
2017,06,23,09,36,17.30
2017,06,23,09,37,17.40
2017,06,23,09,38,17.40
2017,06,23,09,39,17.40
2017,06,23,09,40,17.50
2017,06,23,09,41,17.60
2017,06,23,09,42,17.60
2017,06,23,09,43,17.60
2017,06,23,09,44,17.70
2017,06,23,09,45,17.80
2017,06,23,09,46,17.80
2017,06,23,09,47,17.80
2017,06,23,09,48,17.80
2017,06,23,09,49,17.80
2017,06,23,09,50,17.90
2017,06,23,09,51,17.90
2017,06,23,09,52,18.00
2017,06,23,09,53,18.10
2017,06,23,09,54,18.10
2017,06,23,09,55,18.20
2017,06,23,09,56,18.20
2017,06,23,09,57,18.20
2017,06,23,09,58,18.20
2017,06,23,09,59,18.20
2017,06,23,10,00,18.20
2017,06,23,10,01,18.20
2017,06,23,10,02,18.20
2017,06,23,10,03,18.20
2017,06,23,10,04,18.30
2017,06,23,10,05,18.30
2017,06,23,10,06,18.40
2017,06,23,10,07,18.40
2017,06,23,10,08,18.50
2017,06,23,10,09,18.50
2017,06,23,10,10,18.60
2017,06,23,10,11,18.70
2017,06,23,10,12,18.70
2017,06,23,10,13,18.70
2017,06,23,10,14,18.70
2017,06,23,10,15,18.80
2017,06,23,10,16,18.80
2017,06,23,10,17,18.80
2017,06,23,10,18,18.80
2017,06,23,10,19,18.80
2017,06,23,10,20,18.80
2017,06,23,10,21,18.80
2017,06,23,10,22,18.80
2017,06,23,10,23,18.80
2017,06,23,10,24,18.80
2017,06,23,10,25,18.80
2017,06,23,10,26,18.90
2017,06,23,10,27,19.00
2017,06,23,10,28,19.10
2017,06,23,10,29,19.10
2017,06,23,10,30,19.20
2017,06,23,10,31,19.30
2017,06,23,10,32,19.30
2017,06,23,10,33,19.30
2017,06,23,10,34,19.40
2017,06,23,10,35,19.40
2017,06,23,10,36,19.40
2017,06,23,10,37,19.40
2017,06,23,10,38,19.50
2017,06,23,10,39,19.50
2017,06,23,10,40,19.60
2017,06,23,10,41,19.60
2017,06,23,10,42,19.70
2017,06,23,10,43,19.70
2017,06,23,10,44,19.80
2017,06,23,10,45,19.80
2017,06,23,10,46,19.90
2017,06,23,10,47,19.90
2017,06,23,10,48,19.90
2017,06,23,10,49,19.90
2017,06,23,10,50,19.90
2017,06,23,10,51,20.00
2017,06,23,10,52,20.00
2017,06,23,10,53,19.90
2017,06,23,10,54,19.90
2017,06,23,10,55,19.90
2017,06,23,10,56,20.00
2017,06,23,10,57,20.10
2017,06,23,10,58,20.20
2017,06,23,10,59,20.20
2017,06,23,11,00,20.20
2017,06,23,11,01,20.20
2017,06,23,11,02,20.10
2017,06,23,11,03,20.10
2017,06,23,11,04,20.10
2017,06,23,11,05,20.00
2017,06,23,11,06,20.00
2017,06,23,11,07,20.10
2017,06,23,11,08,20.10
2017,06,23,11,09,20.20
2017,06,23,11,10,20.20
2017,06,23,11,11,20.30
2017,06,23,11,12,20.30
2017,06,23,11,13,20.40
2017,06,23,11,14,20.40
2017,06,23,11,15,20.40
2017,06,23,11,16,20.40
2017,06,23,11,17,20.40
2017,06,23,11,18,20.40
2017,06,23,11,19,20.40
2017,06,23,11,20,20.40
2017,06,23,11,21,20.40
2017,06,23,11,22,20.30
2017,06,23,11,23,20.20
2017,06,23,11,24,20.20
2017,06,23,11,25,20.20
2017,06,23,11,26,20.20
2017,06,23,11,27,20.20
2017,06,23,11,28,20.20
2017,06,23,11,29,20.20
2017,06,23,11,30,20.20
2017,06,23,11,31,20.30
2017,06,23,11,32,20.30
2017,06,23,11,33,20.30
2017,06,23,11,34,20.40
2017,06,23,11,35,20.40
2017,06,23,11,36,20.40
2017,06,23,11,37,20.40
2017,06,23,11,38,20.40
2017,06,23,11,39,20.40
2017,06,23,11,40,20.40
2017,06,23,11,41,20.40
2017,06,23,11,42,20.40
2017,06,23,11,43,20.40
2017,06,23,11,44,20.40
2017,06,23,11,45,20.40
2017,06,23,11,46,20.50
2017,06,23,11,47,20.50
2017,06,23,11,48,20.50
2017,06,23,11,49,20.60
2017,06,23,11,50,20.70
2017,06,23,11,51,20.80
2017,06,23,11,52,20.90
2017,06,23,11,53,21.00
2017,06,23,11,54,21.00
2017,06,23,11,55,21.00
2017,06,23,11,56,21.00
2017,06,23,11,57,21.10
2017,06,23,11,58,21.00
2017,06,23,11,59,21.00
2017,06,23,12,00,21.00
2017,06,23,12,01,21.00
2017,06,23,12,02,20.90
2017,06,23,12,03,20.90
2017,06,23,12,04,20.90
2017,06,23,12,05,20.90
2017,06,23,12,06,21.00
2017,06,23,12,07,21.00
2017,06,23,12,08,21.10
2017,06,23,12,09,21.20
2017,06,23,12,10,21.20
2017,06,23,12,11,21.30
2017,06,23,12,12,21.30
2017,06,23,12,13,21.30
2017,06,23,12,14,21.30
2017,06,23,12,15,21.30
2017,06,23,12,16,21.30
2017,06,23,12,17,21.30
2017,06,23,12,18,21.30
2017,06,23,12,19,21.30
2017,06,23,12,20,21.30
2017,06,23,12,21,21.30
2017,06,23,12,22,21.40
2017,06,23,12,23,21.40
2017,06,23,12,24,21.40
2017,06,23,12,25,21.40
2017,06,23,12,26,21.40
2017,06,23,12,27,21.30
2017,06,23,12,28,21.30
2017,06,23,12,29,21.40
2017,06,23,12,30,21.40
2017,06,23,12,31,21.50
2017,06,23,12,32,21.50
2017,06,23,12,33,21.60
2017,06,23,12,34,21.60
2017,06,23,12,35,21.60
2017,06,23,12,36,21.60
2017,06,23,12,37,21.70
2017,06,23,12,38,21.70
2017,06,23,12,39,21.70
2017,06,23,12,40,21.70
2017,06,23,12,41,21.70
2017,06,23,12,42,21.70
2017,06,23,12,43,21.70
2017,06,23,12,44,21.70
2017,06,23,12,45,21.70
2017,06,23,12,46,21.70
2017,06,23,12,47,21.80
2017,06,23,12,48,21.80
2017,06,23,12,49,21.90
2017,06,23,12,50,21.90
2017,06,23,12,51,21.90
2017,06,23,12,52,21.90
2017,06,23,12,53,21.90
2017,06,23,12,54,22.00
2017,06,23,12,55,22.00
2017,06,23,12,56,22.10
2017,06,23,12,57,22.20
2017,06,23,12,58,22.30
2017,06,23,12,59,22.40
2017,06,23,13,00,22.40
2017,06,23,13,01,22.30
2017,06,23,13,02,22.30
2017,06,23,13,03,22.30
2017,06,23,13,04,22.30
2017,06,23,13,05,22.30
2017,06,23,13,06,22.40
2017,06,23,13,07,22.40
2017,06,23,13,08,22.40
2017,06,23,13,09,22.50
2017,06,23,13,10,22.60
2017,06,23,13,11,22.60
2017,06,23,13,12,22.60
2017,06,23,13,13,22.60
2017,06,23,13,14,22.60
2017,06,23,13,15,22.60
2017,06,23,13,16,22.70
2017,06,23,13,17,22.70
2017,06,23,13,18,22.80
2017,06,23,13,19,22.80
2017,06,23,13,20,22.90
2017,06,23,13,21,22.90
2017,06,23,13,22,23.00
2017,06,23,13,23,23.10
2017,06,23,13,24,23.10
2017,06,23,13,25,23.20
2017,06,23,13,26,23.20
2017,06,23,13,27,23.20
2017,06,23,13,28,23.20
2017,06,23,13,29,23.20
2017,06,23,13,30,23.20
2017,06,23,13,31,23.30
2017,06,23,13,32,23.30
2017,06,23,13,33,23.30
2017,06,23,13,34,23.30
2017,06,23,13,35,23.30
2017,06,23,13,36,23.40
2017,06,23,13,37,23.50
2017,06,23,13,38,23.60
2017,06,23,13,39,23.70
2017,06,23,13,40,23.70
2017,06,23,13,41,23.80
2017,06,23,13,42,23.80
2017,06,23,13,43,23.80
2017,06,23,13,44,23.90
2017,06,23,13,45,23.90
2017,06,23,13,46,24.00
2017,06,23,13,47,24.00
2017,06,23,13,48,24.10
2017,06,23,13,49,24.10
2017,06,23,13,50,24.20
2017,06,23,13,51,24.20
2017,06,23,13,52,24.20
2017,06,23,13,53,24.20
2017,06,23,13,54,24.20
2017,06,23,13,55,24.20
2017,06,23,13,56,24.20
2017,06,23,13,57,24.10
2017,06,23,13,58,24.10
2017,06,23,13,59,24.10
2017,06,23,14,00,24.10
2017,06,23,14,01,24.10
2017,06,23,14,02,24.10
2017,06,23,14,03,24.10
2017,06,23,14,04,24.10
2017,06,23,14,05,24.10
2017,06,23,14,06,24.20
2017,06,23,14,07,24.20
2017,06,23,14,08,24.20
2017,06,23,14,09,24.20
2017,06,23,14,10,24.20
2017,06,23,14,11,24.20
2017,06,23,14,12,24.20
2017,06,23,14,13,24.30
2017,06,23,14,14,24.30
2017,06,23,14,15,24.30
2017,06,23,14,16,24.30
2017,06,23,14,17,24.30
2017,06,23,14,18,24.40
2017,06,23,14,19,24.40
2017,06,23,14,20,24.40
2017,06,23,14,21,24.40
2017,06,23,14,22,24.30
2017,06,23,14,23,24.30
2017,06,23,14,24,24.40
2017,06,23,14,25,24.40
2017,06,23,14,26,24.50
2017,06,23,14,27,24.50
2017,06,23,14,28,24.60
2017,06,23,14,29,24.70
2017,06,23,14,30,24.70
2017,06,23,14,31,24.80
2017,06,23,14,32,24.90
2017,06,23,14,33,24.90
2017,06,23,14,34,24.90
2017,06,23,14,35,24.90
2017,06,23,14,36,24.90
2017,06,23,14,37,24.90
2017,06,23,14,38,24.90
2017,06,23,14,39,25.00
2017,06,23,14,40,25.00
2017,06,23,14,41,25.00
2017,06,23,14,42,25.00
2017,06,23,14,43,25.00
2017,06,23,14,44,25.10
2017,06,23,14,45,25.10
2017,06,23,14,46,25.20
2017,06,23,14,47,25.20
2017,06,23,14,48,25.20
2017,06,23,14,49,25.20
2017,06,23,14,50,25.20
2017,06,23,14,51,25.20
2017,06,23,14,52,25.20
2017,06,23,14,53,25.20
2017,06,23,14,54,25.30
2017,06,23,14,55,25.30
2017,06,23,14,56,25.40
2017,06,23,14,57,25.40
2017,06,23,14,58,25.50
2017,06,23,14,59,25.50
2017,06,23,15,00,25.50
2017,06,23,15,01,25.50
2017,06,23,15,02,25.40
2017,06,23,15,03,25.40
2017,06,23,15,04,25.40
2017,06,23,15,05,25.40
2017,06,23,15,06,25.40
2017,06,23,15,07,25.40
2017,06,23,15,08,25.50
2017,06,23,15,09,25.50
2017,06,23,15,10,25.50
2017,06,23,15,11,25.60
2017,06,23,15,12,25.60
2017,06,23,15,13,25.60
2017,06,23,15,14,25.70
2017,06,23,15,15,25.70
2017,06,23,15,16,25.70
2017,06,23,15,17,25.70
2017,06,23,15,18,25.70
2017,06,23,15,19,25.70
2017,06,23,15,20,25.80
2017,06,23,15,21,25.80
2017,06,23,15,22,25.80
2017,06,23,15,23,25.80
2017,06,23,15,24,25.80
2017,06,23,15,25,25.70
2017,06,23,15,26,25.70
2017,06,23,15,27,25.70
2017,06,23,15,28,25.70
2017,06,23,15,29,25.70
2017,06,23,15,30,25.70
2017,06,23,15,31,25.80
2017,06,23,15,32,25.80
2017,06,23,15,33,25.80
2017,06,23,15,34,25.80
2017,06,23,15,35,25.80
2017,06,23,15,36,25.80
2017,06,23,15,37,25.80
2017,06,23,15,38,25.90
2017,06,23,15,39,25.90
2017,06,23,15,40,25.90
2017,06,23,15,41,25.90
2017,06,23,15,42,25.90
2017,06,23,15,43,25.80
2017,06,23,15,44,25.80
2017,06,23,15,45,25.90
2017,06,23,15,46,26.00
2017,06,23,15,47,26.10
2017,06,23,15,48,26.20
2017,06,23,15,49,26.40
2017,06,23,15,50,26.50
2017,06,23,15,51,26.70
2017,06,23,15,52,26.80
2017,06,23,15,53,26.80
2017,06,23,15,54,26.90
2017,06,23,15,55,26.90
2017,06,23,15,56,26.90
2017,06,23,15,57,26.90
2017,06,23,15,58,26.90
2017,06,23,15,59,26.90
2017,06,23,16,00,26.80
2017,06,23,16,01,26.70
2017,06,23,16,02,26.60
2017,06,23,16,03,26.60
2017,06,23,16,04,26.50
2017,06,23,16,05,26.50
2017,06,23,16,06,26.40
2017,06,23,16,07,26.50
2017,06,23,16,08,26.50
2017,06,23,16,09,26.60
2017,06,23,16,10,26.60
2017,06,23,16,11,26.70
2017,06,23,16,12,26.80
2017,06,23,16,13,26.80
2017,06,23,16,14,26.80
2017,06,23,16,15,26.90
2017,06,23,16,16,26.90
2017,06,23,16,17,27.00
2017,06,23,16,18,27.10
2017,06,23,16,19,27.10
2017,06,23,16,20,27.20
2017,06,23,16,21,27.20
2017,06,23,16,22,27.10
2017,06,23,16,23,27.10
2017,06,23,16,24,27.10
2017,06,23,16,25,27.10
2017,06,23,16,26,27.10
2017,06,23,16,27,27.10
2017,06,23,16,28,27.10
2017,06,23,16,29,27.10
2017,06,23,16,30,27.10
2017,06,23,16,31,27.00
2017,06,23,16,32,26.90
2017,06,23,16,33,26.90
2017,06,23,16,34,26.80
2017,06,23,16,35,26.80
2017,06,23,16,36,26.80
2017,06,23,16,37,26.90
2017,06,23,16,38,26.90
2017,06,23,16,39,27.00
2017,06,23,16,40,27.00
2017,06,23,16,41,27.00
2017,06,23,16,42,26.90
2017,06,23,16,43,26.90
2017,06,23,16,44,27.00
2017,06,23,16,45,27.00
2017,06,23,16,46,27.10
2017,06,23,16,47,27.10
2017,06,23,16,48,27.20
2017,06,23,16,49,27.20
2017,06,23,16,50,27.10
2017,06,23,16,51,27.10
2017,06,23,16,52,27.10
2017,06,23,16,53,27.10
2017,06,23,16,54,27.10
2017,06,23,16,55,27.10
2017,06,23,16,56,27.00
2017,06,23,16,57,27.00
2017,06,23,16,58,26.90
2017,06,23,16,59,26.80
2017,06,23,17,00,26.80
2017,06,23,17,01,26.90
2017,06,23,17,02,26.90
2017,06,23,17,03,27.00
2017,06,23,17,04,27.00
2017,06,23,17,05,27.10
2017,06,23,17,06,27.10
2017,06,23,17,07,27.00
2017,06,23,17,08,26.90
2017,06,23,17,09,26.90
2017,06,23,17,10,26.80
2017,06,23,17,11,26.80
2017,06,23,17,12,26.80
2017,06,23,17,13,26.70
2017,06,23,17,14,26.70
2017,06,23,17,15,26.80
2017,06,23,17,16,26.80
2017,06,23,17,17,26.80
2017,06,23,17,18,26.80
2017,06,23,17,19,26.80
2017,06,23,17,20,26.80
2017,06,23,17,21,26.80
2017,06,23,17,22,26.80
2017,06,23,17,23,26.80
2017,06,23,17,24,26.80
2017,06,23,17,25,26.90